Location: St. Louis
(38.6270°N, 90.1994°W)
Time: 04:47:11
(UTC-06:00)

Vanguard 2 - Pass Details

Date: 29 November 2021
Orbit: 553 x 2936 km, 32.9° (Epoch: 19 January)

Event Time Altitude Azimuth Distance (km) Brightness Sun altitude
Rises 18:57:00 0° 274° (W) 4,428 12.7 -26.2°
Reaches altitude 10° 18:59:40 10° 268° (W) 3,727 12.0 -26.7°
Maximum altitude 19:09:20 47° 199° (SSW) 2,655 10.3 -28.6°
Enters shadow 19:20:44 18° 138° (SE) 4,746 11.2 -30.8°
